Wetterdaten: Woche 01.01.18 - 07.01.18 (KW1)
Datum Zeit Temp. I. Temp. A. Feuchte I. Feuchte A. Luftdruck Regen Wind Richtung Sonnenschein UV Solar Taupunkt Windchill Windben
01.01.2018 00:00 23,7 C 5,5 C 65 % 89 % 1005,2 hPa 0,0 l/m 0,2 km/h (0 Bft) SO 0,00 h 0,0 UV-I 0 W/m 3,9 C 5,5 C 0,6 km/h (0 Bft)
01.01.2018 01:00 23,2 C 5,5 C 67 % 90 % 1005,0 hPa 0,0 l/m 0,8 km/h (0 Bft) S 0,00 h 0,0 UV-I 0 W/m 4,0 C 5,5 C 2,5 km/h (1 Bft)
01.01.2018 02:00 23,1 C 6,3 C 66 % 87 % 1004,7 hPa 0,0 l/m 11,9 km/h (2 Bft) S 0,00 h 0,0 UV-I 0 W/m 4,3 C 2,6 C 18,4 km/h (3 Bft)
01.01.2018 03:00 23,0 C 6,9 C 65 % 83 % 1004,8 hPa 0,0 l/m 14,1 km/h (3 Bft) S 0,00 h 0,0 UV-I 0 W/m 4,3 C 2,0 C 21,5 km/h (4 Bft)
01.01.2018 04:00 22,9 C 7,0 C 65 % 83 % 1005,1 hPa 0,0 l/m 8,5 km/h (2 Bft) S-SW 0,00 h 0,0 UV-I 0 W/m 4,4 C 5,2 C 14,6 km/h (3 Bft)
01.01.2018 05:00 22,9 C 7,0 C 66 % 85 % 1005,3 hPa 0,0 l/m 9,3 km/h (2 Bft) SW 0,00 h 0,0 UV-I 0 W/m 4,7 C 4,9 C 16,0 km/h (3 Bft)
01.01.2018 06:00 22,9 C 7,2 C 66 % 81 % 1005,6 hPa 0,0 l/m 16,2 km/h (3 Bft) W-SW 0,00 h 0,0 UV-I 0 W/m 4,1 C 1,3 C 27,1 km/h (4 Bft)
01.01.2018 07:00 22,9 C 6,8 C 66 % 81 % 1006,5 hPa 0,0 l/m 14,0 km/h (3 Bft) SW 0,00 h 0,0 UV-I 0 W/m 3,7 C 1,9 C 23,5 km/h (4 Bft)
01.01.2018 08:00 23,1 C 6,3 C 66 % 83 % 1007,2 hPa 0,0 l/m 13,7 km/h (3 Bft) SW 0,00 h 0,0 UV-I 29 W/m 3,7 C 1,7 C 23,9 km/h (4 Bft)
01.01.2018 09:00 23,1 C 5,1 C 65 % 89 % 1008,3 hPa 1,2 l/m 14,2 km/h (3 Bft) W-SW 0,00 h 0,0 UV-I 32 W/m 3,5 C 0,0 C 22,6 km/h (4 Bft)
01.01.2018 10:00 23,3 C 4,0 C 66 % 93 % 1008,9 hPa 0,0 l/m 7,5 km/h (2 Bft) W-SW 0,00 h 0,5 UV-I 45 W/m 2,9 C 2,7 C 13,1 km/h (3 Bft)
01.01.2018 11:00 23,0 C 5,2 C 58 % 87 % 1008,8 hPa 0,0 l/m 12,1 km/h (2 Bft) SW 0,00 h 0,5 UV-I 65 W/m 3,2 C 1,0 C 20,1 km/h (4 Bft)
01.01.2018 12:00 23,0 C 5,3 C 59 % 83 % 1008,3 hPa 0,0 l/m 11,4 km/h (2 Bft) SW 0,00 h 0,5 UV-I 57 W/m 2,6 C 1,7 C 19,5 km/h (3 Bft)
01.01.2018 13:00 23,3 C 5,7 C 63 % 77 % 1007,5 hPa 0,0 l/m 10,9 km/h (2 Bft) SW 0,03 h 0,5 UV-I 85 W/m 2,0 C 2,3 C 18,9 km/h (3 Bft)
01.01.2018 14:00 23,3 C 5,6 C 62 % 77 % 1006,8 hPa 0,0 l/m 6,2 km/h (2 Bft) W-SW 0,00 h 0,5 UV-I 44 W/m 1,9 C 4,1 C 11,6 km/h (2 Bft)
01.01.2018 15:00 23,3 C 5,5 C 62 % 78 % 1006,2 hPa 0,0 l/m 3,0 km/h (1 Bft) S-SW 0,00 h 0,0 UV-I 27 W/m 2,0 C 5,4 C 6,9 km/h (2 Bft)
01.01.2018 16:00 23,3 C 4,8 C 61 % 79 % 1005,7 hPa 0,0 l/m 6,3 km/h (2 Bft) S 0,00 h 0,0 UV-I 6 W/m 1,5 C 4,1 C 10,6 km/h (2 Bft)
01.01.2018 17:00 23,3 C 3,9 C 61 % 83 % 1005,1 hPa 0,0 l/m 4,8 km/h (1 Bft) S-SO 0,00 h 0,0 UV-I 0 W/m 1,2 C 3,6 C 8,3 km/h (2 Bft)
01.01.2018 18:00 23,3 C 3,7 C 63 % 85 % 1004,3 hPa 0,0 l/m 6,4 km/h (2 Bft) SO 0,00 h 0,0 UV-I 0 W/m 1,4 C 3,2 C 10,3 km/h (2 Bft)
01.01.2018 19:00 23,2 C 3,6 C 63 % 84 % 1003,8 hPa 0,0 l/m 7,4 km/h (2 Bft) SO 0,00 h 0,0 UV-I 0 W/m 1,1 C 2,4 C 12,1 km/h (2 Bft)
01.01.2018 20:00 23,2 C 3,7 C 64 % 82 % 1003,4 hPa 0,0 l/m 4,6 km/h (1 Bft) O-SO 0,00 h 0,0 UV-I 0 W/m 1,0 C 3,6 C 8,6 km/h (2 Bft)
01.01.2018 21:00 23,2 C 3,9 C 64 % 82 % 1003,1 hPa 0,0 l/m 4,0 km/h (1 Bft) O-SO 0,00 h 0,0 UV-I 0 W/m 1,1 C 3,4 C 7,4 km/h (2 Bft)
01.01.2018 22:00 23,2 C 3,7 C 63 % 87 % 1003,0 hPa 0,6 l/m 10,8 km/h (2 Bft) S-SO 0,00 h 0,0 UV-I 0 W/m 1,7 C 0,2 C 16,6 km/h (3 Bft)
01.01.2018 23:00 23,1 C 2,7 C 63 % 92 % 1002,8 hPa 0,6 l/m 12,8 km/h (3 Bft) S-SO 0,00 h 0,0 UV-I 0 W/m 1,6 C -2,2 C 19,5 km/h (3 Bft)
02.01.2018 00:00 23,0 C 3,1 C 63 % 94 % 1002,3 hPa 0,4 l/m 12,7 km/h (3 Bft) S-SO 0,00 h 0,0 UV-I 0 W/m 2,2 C -1,7 C 19,4 km/h (3 Bft)
02.01.2018 01:00 22,8 C 3,5 C 64 % 94 % 1002,0 hPa 0,2 l/m 11,1 km/h (2 Bft) S-SO 0,00 h 0,0 UV-I 0 W/m 2,6 C -0,2 C 17,5 km/h (3 Bft)
02.01.2018 02:00 22,7 C 3,8 C 64 % 94 % 1002,3 hPa 0,2 l/m 11,6 km/h (2 Bft) S 0,00 h 0,0 UV-I 0 W/m 2,9 C -0,3 C 18,8 km/h (3 Bft)
02.01.2018 03:00 22,7 C 3,8 C 66 % 95 % 1003,0 hPa 0,4 l/m 10,8 km/h (2 Bft) S-SW 0,00 h 0,0 UV-I 0 W/m 3,1 C 0,4 C 18,1 km/h (3 Bft)
02.01.2018 04:00 22,7 C 3,8 C 66 % 94 % 1003,8 hPa 0,2 l/m 11,7 km/h (2 Bft) SW 0,00 h 0,0 UV-I 0 W/m 2,9 C -0,1 C 19,6 km/h (3 Bft)
02.01.2018 05:00 22,7 C 3,6 C 66 % 93 % 1004,6 hPa 0,0 l/m 15,1 km/h (3 Bft) SW 0,00 h 0,0 UV-I 0 W/m 2,5 C -2,4 C 23,9 km/h (4 Bft)
02.01.2018 06:00 22,7 C 3,2 C 65 % 93 % 1005,6 hPa 0,6 l/m 15,9 km/h (3 Bft) W-SW 0,00 h 0,0 UV-I 0 W/m 2,2 C -3,4 C 26,6 km/h (4 Bft)
02.01.2018 07:00 22,8 C 2,6 C 66 % 94 % 1007,0 hPa 0,8 l/m 10,7 km/h (2 Bft) W-SW 0,00 h 0,0 UV-I 0 W/m 1,7 C -1,0 C 17,5 km/h (3 Bft)
02.01.2018 08:00 22,8 C 2,0 C 65 % 95 % 1008,4 hPa 0,6 l/m 9,0 km/h (2 Bft) W-SW 0,00 h 0,0 UV-I 9 W/m 1,2 C -0,4 C 15,8 km/h (3 Bft)
02.01.2018 09:00 22,9 C 2,1 C 65 % 95 % 1009,6 hPa 0,2 l/m 6,8 km/h (2 Bft) W-SW 0,00 h 0,0 UV-I 31 W/m 1,5 C 0,9 C 12,1 km/h (2 Bft)
02.01.2018 10:00 22,9 C 2,9 C 64 % 96 % 1010,5 hPa 0,0 l/m 5,3 km/h (1 Bft) W-SW 0,00 h 0,0 UV-I 54 W/m 2,3 C 2,3 C 10,6 km/h (2 Bft)
02.01.2018 11:00 23,0 C 3,3 C 64 % 96 % 1010,9 hPa 0,0 l/m 6,2 km/h (2 Bft) W-SW 0,00 h 0,5 UV-I 54 W/m 2,7 C 2,3 C 11,0 km/h (2 Bft)
02.01.2018 12:00 23,1 C 3,6 C 63 % 95 % 1011,3 hPa 0,0 l/m 7,7 km/h (2 Bft) W-SW 0,10 h 0,6 UV-I 103 W/m 2,9 C 2,0 C 12,9 km/h (3 Bft)
02.01.2018 13:00 23,2 C 3,4 C 62 % 95 % 1011,8 hPa 0,0 l/m 2,8 km/h (1 Bft) W-SW 0,00 h 0,5 UV-I 51 W/m 2,6 C 3,4 C 6,6 km/h (2 Bft)
02.01.2018 14:00 23,2 C 3,8 C 61 % 94 % 1012,4 hPa 0,2 l/m 2,0 km/h (1 Bft) SW 0,38 h 0,5 UV-I 120 W/m 2,9 C 3,8 C 5,2 km/h (1 Bft)
02.01.2018 15:00 23,2 C 4,0 C 57 % 91 % 1013,0 hPa 0,0 l/m 1,7 km/h (1 Bft) W-SW 0,02 h 0,0 UV-I 32 W/m 2,7 C 3,9 C 4,5 km/h (1 Bft)
02.01.2018 16:00 23,2 C 3,3 C 58 % 93 % 1013,8 hPa 0,0 l/m 4,7 km/h (1 Bft) W 0,00 h 0,0 UV-I 5 W/m 2,2 C 2,8 C 9,4 km/h (2 Bft)
02.01.2018 17:00 23,1 C 3,0 C 58 % 93 % 1014,2 hPa 0,6 l/m 5,1 km/h (1 Bft) W-NW 0,00 h 0,0 UV-I 0 W/m 2,0 C 2,0 C 9,3 km/h (2 Bft)
02.01.2018 18:00 23,1 C 2,7 C 60 % 94 % 1014,3 hPa 0,0 l/m 2,8 km/h (1 Bft) W-SW 0,00 h 0,0 UV-I 0 W/m 1,8 C 2,6 C 5,9 km/h (2 Bft)
02.01.2018 19:00 23,0 C 2,7 C 62 % 94 % 1014,7 hPa 0,0 l/m 5,5 km/h (1 Bft) W-SW 0,00 h 0,0 UV-I 0 W/m 1,8 C 2,2 C 10,7 km/h (2 Bft)
02.01.2018 20:00 23,0 C 2,5 C 63 % 94 % 1014,6 hPa 0,0 l/m 3,5 km/h (1 Bft) SW 0,00 h 0,0 UV-I 0 W/m 1,7 C 2,4 C 8,0 km/h (2 Bft)
02.01.2018 21:00 23,0 C 2,2 C 63 % 94 % 1013,9 hPa 0,0 l/m 4,4 km/h (1 Bft) S 0,00 h 0,0 UV-I 0 W/m 1,4 C 2,1 C 8,8 km/h (2 Bft)
02.01.2018 22:00 23,0 C 1,9 C 64 % 95 % 1013,2 hPa 0,0 l/m 4,4 km/h (1 Bft) S 0,00 h 0,0 UV-I 0 W/m 1,1 C 1,8 C 8,3 km/h (2 Bft)
02.01.2018 23:00 22,9 C 1,9 C 64 % 94 % 1012,4 hPa 0,0 l/m 7,5 km/h (2 Bft) S 0,00 h 0,0 UV-I 0 W/m 1,1 C 0,4 C 12,2 km/h (2 Bft)
03.01.2018 00:00 22,9 C 1,9 C 64 % 93 % 1011,0 hPa 0,0 l/m 6,5 km/h (2 Bft) S-SO 0,00 h 0,0 UV-I 0 W/m 0,9 C 1,2 C 10,9 km/h (2 Bft)
03.01.2018 01:00 22,8 C 1,9 C 64 % 93 % 1009,6 hPa 0,0 l/m 7,7 km/h (2 Bft) S-SO 0,00 h 0,0 UV-I 0 W/m 0,9 C 0,4 C 12,0 km/h (2 Bft)
03.01.2018 02:00 22,7 C 2,0 C 64 % 93 % 1008,2 hPa 0,0 l/m 7,7 km/h (2 Bft) S-SO 0,00 h 0,0 UV-I 0 W/m 1,0 C 0,5 C 12,8 km/h (3 Bft)
03.01.2018 03:00 22,6 C 2,1 C 64 % 93 % 1006,2 hPa 0,2 l/m 10,3 km/h (2 Bft) S-SO 0,00 h 0,0 UV-I 0 W/m 1,1 C -1,2 C 17,1 km/h (3 Bft)
03.01.2018 04:00 22,5 C 1,7 C 64 % 94 % 1004,2 hPa 1,6 l/m 10,5 km/h (2 Bft) S-SO 0,00 h 0,0 UV-I 0 W/m 0,9 C -1,7 C 16,8 km/h (3 Bft)
03.01.2018 05:00 22,4 C 2,0 C 64 % 95 % 1001,1 hPa 0,4 l/m 16,9 km/h (3 Bft) S-SO 0,00 h 0,0 UV-I 0 W/m 1,3 C -5,5 C 25,4 km/h (4 Bft)
03.01.2018 06:00 22,3 C 2,4 C 64 % 96 % 998,5 hPa 1,0 l/m 18,3 km/h (3 Bft) S-SO 0,00 h 0,0 UV-I 0 W/m 1,8 C -5,6 C 27,9 km/h (4 Bft)
03.01.2018 07:00 22,3 C 3,3 C 64 % 96 % 995,4 hPa 0,6 l/m 14,9 km/h (3 Bft) S-SO 0,00 h 0,0 UV-I 0 W/m 2,7 C -2,7 C 23,4 km/h (4 Bft)
03.01.2018 08:00 22,4 C 4,1 C 64 % 96 % 992,5 hPa 0,6 l/m 14,2 km/h (3 Bft) S-SO 0,00 h 0,0 UV-I 5 W/m 3,6 C -1,3 C 22,6 km/h (4 Bft)
03.01.2018 09:00 22,4 C 5,3 C 62 % 96 % 990,5 hPa 4,4 l/m 16,0 km/h (3 Bft) S-SO 0,00 h 0,0 UV-I 9 W/m 4,7 C -0,8 C 24,7 km/h (4 Bft)
03.01.2018 10:00 22,4 C 5,4 C 62 % 96 % 992,0 hPa 0,8 l/m 8,6 km/h (2 Bft) W 0,03 h 0,5 UV-I 40 W/m 4,8 C 3,1 C 14,7 km/h (3 Bft)
03.01.2018 11:00 22,6 C 5,2 C 61 % 94 % 992,1 hPa 0,0 l/m 8,6 km/h (2 Bft) SW 0,00 h 0,5 UV-I 71 W/m 4,3 C 3,2 C 15,2 km/h (3 Bft)
03.01.2018 12:00 22,8 C 5,6 C 60 % 92 % 992,0 hPa 0,0 l/m 11,0 km/h (2 Bft) SW 0,18 h 0,6 UV-I 87 W/m 4,3 C 2,1 C 19,5 km/h (3 Bft)
03.01.2018 13:00 22,8 C 5,4 C 59 % 90 % 993,5 hPa 0,2 l/m 14,9 km/h (3 Bft) SW 0,00 h 0,5 UV-I 42 W/m 3,9 C -0,0 C 25,8 km/h (4 Bft)
03.01.2018 14:00 23,0 C 4,9 C 56 % 87 % 995,4 hPa 0,0 l/m 18,7 km/h (3 Bft) W 0,40 h 0,5 UV-I 152 W/m 2,9 C -2,5 C 30,6 km/h (5 Bft)
03.01.2018 15:00 22,8 C 4,6 C 54 % 86 % 997,0 hPa 0,0 l/m 17,4 km/h (3 Bft) W-SW 0,00 h 0,0 UV-I 20 W/m 2,5 C -2,2 C 27,3 km/h (4 Bft)
03.01.2018 16:00 22,8 C 4,2 C 56 % 89 % 997,8 hPa 0,2 l/m 11,9 km/h (2 Bft) SW 0,00 h 0,0 UV-I 6 W/m 2,6 C 0,1 C 20,0 km/h (4 Bft)
03.01.2018 17:00 23,0 C 4,3 C 58 % 89 % 998,3 hPa 0,4 l/m 14,5 km/h (3 Bft) SW 0,00 h 0,0 UV-I 0 W/m 2,7 C -1,3 C 24,2 km/h (4 Bft)
03.01.2018 18:00 23,1 C 4,0 C 61 % 91 % 998,7 hPa 0,0 l/m 13,7 km/h (3 Bft) W-SW 0,00 h 0,0 UV-I 0 W/m 2,7 C -1,1 C 23,5 km/h (4 Bft)
03.01.2018 19:00 23,1 C 4,3 C 65 % 90 % 999,0 hPa 0,0 l/m 14,2 km/h (3 Bft) SW 0,00 h 0,0 UV-I 0 W/m 2,8 C -1,0 C 24,4 km/h (4 Bft)
03.01.2018 20:00 23,1 C 4,4 C 65 % 89 % 999,3 hPa 0,2 l/m 15,7 km/h (3 Bft) W-SW 0,00 h 0,0 UV-I 0 W/m 2,8 C -1,7 C 25,3 km/h (4 Bft)
03.01.2018 21:00 23,0 C 4,6 C 64 % 89 % 999,4 hPa 0,0 l/m 12,9 km/h (3 Bft) SW 0,00 h 0,0 UV-I 0 W/m 2,9 C -0,0 C 22,3 km/h (4 Bft)
03.01.2018 22:00 23,1 C 4,5 C 64 % 89 % 1000,2 hPa 0,4 l/m 11,0 km/h (2 Bft) SW 0,00 h 0,0 UV-I 0 W/m 2,8 C 1,0 C 19,0 km/h (3 Bft)
03.01.2018 23:00 23,1 C 4,1 C 64 % 92 % 1000,5 hPa 0,6 l/m 9,7 km/h (2 Bft) SW 0,00 h 0,0 UV-I 0 W/m 2,9 C 1,3 C 18,0 km/h (3 Bft)
04.01.2018 00:00 23,0 C 3,8 C 64 % 93 % 1000,6 hPa 0,8 l/m 8,0 km/h (2 Bft) W-SW 0,00 h 0,0 UV-I 0 W/m 2,8 C 2,0 C 14,2 km/h (3 Bft)
04.01.2018 01:00 22,8 C 4,1 C 64 % 90 % 1000,5 hPa 0,0 l/m 13,1 km/h (3 Bft) SW 0,00 h 0,0 UV-I 0 W/m 2,7 C -0,6 C 22,2 km/h (4 Bft)
04.01.2018 02:00 22,7 C 4,5 C 64 % 87 % 1000,9 hPa 0,0 l/m 14,5 km/h (3 Bft) W-SW 0,00 h 0,0 UV-I 0 W/m 2,5 C -1,1 C 24,5 km/h (4 Bft)
04.01.2018 03:00 22,7 C 4,5 C 64 % 86 % 1000,8 hPa 0,0 l/m 14,6 km/h (3 Bft) SW 0,00 h 0,0 UV-I 0 W/m 2,4 C -1,1 C 23,6 km/h (4 Bft)
04.01.2018 04:00 22,7 C 3,9 C 65 % 90 % 1001,1 hPa 0,0 l/m 13,4 km/h (3 Bft) W-SW 0,00 h 0,0 UV-I 0 W/m 2,4 C -1,1 C 22,6 km/h (4 Bft)
04.01.2018 05:00 22,7 C 3,7 C 65 % 92 % 1001,5 hPa 0,2 l/m 8,5 km/h (2 Bft) SW 0,00 h 0,0 UV-I 0 W/m 2,5 C 1,6 C 15,0 km/h (3 Bft)
04.01.2018 06:00 22,8 C 3,8 C 65 % 91 % 1001,6 hPa 0,0 l/m 5,5 km/h (1 Bft) SW 0,00 h 0,0 UV-I 0 W/m 2,5 C 3,2 C 10,5 km/h (2 Bft)
04.01.2018 07:00 22,9 C 3,8 C 64 % 91 % 1001,8 hPa 0,0 l/m 5,1 km/h (1 Bft) S-SW 0,00 h 0,0 UV-I 0 W/m 2,4 C 3,4 C 9,7 km/h (2 Bft)
04.01.2018 08:00 22,8 C 3,8 C 61 % 91 % 1001,9 hPa 0,0 l/m 4,2 km/h (1 Bft) S 0,00 h 0,0 UV-I 13 W/m 2,5 C 3,6 C 8,6 km/h (2 Bft)
04.01.2018 09:00 22,7 C 3,8 C 59 % 91 % 1002,4 hPa 0,0 l/m 6,8 km/h (2 Bft) S 0,00 h 0,0 UV-I 17 W/m 2,6 C 3,0 C 11,2 km/h (2 Bft)
04.01.2018 10:00 22,7 C 4,0 C 58 % 92 % 1002,4 hPa 0,0 l/m 5,7 km/h (1 Bft) S-SW 0,00 h 0,0 UV-I 40 W/m 2,8 C 3,1 C 10,6 km/h (2 Bft)
04.01.2018 11:00 22,8 C 4,3 C 57 % 92 % 1001,9 hPa 0,0 l/m 5,7 km/h (1 Bft) S 0,00 h 0,0 UV-I 57 W/m 3,1 C 4,0 C 9,8 km/h (2 Bft)
04.01.2018 12:00 22,9 C 4,7 C 56 % 90 % 1001,0 hPa 0,0 l/m 7,3 km/h (2 Bft) S 0,00 h 0,5 UV-I 94 W/m 3,2 C 3,7 C 12,0 km/h (2 Bft)
04.01.2018 13:00 22,9 C 4,8 C 57 % 89 % 1000,0 hPa 0,0 l/m 5,3 km/h (1 Bft) S 0,00 h 0,0 UV-I 50 W/m 3,2 C 4,3 C 10,0 km/h (2 Bft)
04.01.2018 14:00 22,9 C 4,6 C 57 % 91 % 999,6 hPa 0,0 l/m 7,1 km/h (2 Bft) S 0,00 h 0,0 UV-I 26 W/m 3,3 C 3,4 C 11,9 km/h (2 Bft)
04.01.2018 15:00 22,9 C 3,9 C 58 % 93 % 999,2 hPa 0,0 l/m 8,7 km/h (2 Bft) S 0,00 h 0,0 UV-I 8 W/m 3,0 C 1,9 C 13,4 km/h (3 Bft)
04.01.2018 16:00 22,9 C 3,6 C 59 % 94 % 998,4 hPa 0,2 l/m 7,1 km/h (2 Bft) S-SO 0,00 h 0,0 UV-I 5 W/m 2,7 C 2,3 C 12,0 km/h (2 Bft)
04.01.2018 17:00 22,8 C 4,0 C 60 % 95 % 997,7 hPa 0,2 l/m 8,5 km/h (2 Bft) S-SO 0,00 h 0,0 UV-I 0 W/m 3,2 C 2,1 C 13,5 km/h (3 Bft)
04.01.2018 18:00 22,3 C 4,2 C 63 % 96 % 996,9 hPa 0,2 l/m 5,3 km/h (1 Bft) S-SO 0,00 h 0,0 UV-I 0 W/m 3,5 C 3,8 C 9,1 km/h (2 Bft)
04.01.2018 19:00 22,6 C 4,7 C 63 % 96 % 996,3 hPa 0,2 l/m 4,3 km/h (1 Bft) S 0,00 h 0,0 UV-I 0 W/m 4,1 C 4,1 C 8,4 km/h (2 Bft)
04.01.2018 20:00 22,9 C 5,2 C 62 % 97 % 995,9 hPa 0,2 l/m 3,3 km/h (1 Bft) S 0,00 h 0,0 UV-I 0 W/m 4,8 C 5,1 C 6,7 km/h (2 Bft)
04.01.2018 21:00 22,9 C 6,3 C 62 % 97 % 995,9 hPa 0,2 l/m 4,9 km/h (1 Bft) S 0,00 h 0,0 UV-I 0 W/m 5,9 C 6,0 C 8,7 km/h (2 Bft)
04.01.2018 22:00 23,1 C 6,8 C 62 % 97 % 995,7 hPa 0,6 l/m 1,5 km/h (1 Bft) S-SO 0,00 h 0,0 UV-I 0 W/m 6,3 C 6,8 C 2,5 km/h (1 Bft)
04.01.2018 23:00 23,1 C 7,2 C 62 % 97 % 995,6 hPa 0,0 l/m 5,6 km/h (1 Bft) SW 0,00 h 0,0 UV-I 0 W/m 6,7 C 6,8 C 10,1 km/h (2 Bft)
05.01.2018 00:00 23,1 C 7,4 C 63 % 96 % 996,6 hPa 0,0 l/m 6,7 km/h (2 Bft) W-SW 0,00 h 0,0 UV-I 0 W/m 6,8 C 6,5 C 11,9 km/h (2 Bft)
05.01.2018 01:00 22,9 C 7,3 C 63 % 92 % 997,7 hPa 0,0 l/m 9,6 km/h (2 Bft) W-SW 0,00 h 0,0 UV-I 0 W/m 6,1 C 4,7 C 16,9 km/h (3 Bft)
05.01.2018 02:00 22,8 C 7,0 C 63 % 88 % 999,2 hPa 0,0 l/m 7,0 km/h (2 Bft) W-SW 0,00 h 0,0 UV-I 0 W/m 5,1 C 5,6 C 12,6 km/h (3 Bft)
05.01.2018 03:00 22,8 C 6,5 C 63 % 88 % 1000,0 hPa 0,0 l/m 7,4 km/h (2 Bft) SW 0,00 h 0,0 UV-I 0 W/m 4,7 C 5,1 C 13,6 km/h (3 Bft)
05.01.2018 04:00 22,8 C 6,0 C 63 % 87 % 1000,7 hPa 0,0 l/m 8,6 km/h (2 Bft) S-SW 0,00 h 0,0 UV-I 0 W/m 4,0 C 4,0 C 15,0 km/h (3 Bft)
05.01.2018 05:00 22,8 C 5,7 C 63 % 87 % 1001,1 hPa 0,0 l/m 10,1 km/h (2 Bft) S-SW 0,00 h 0,0 UV-I 0 W/m 3,7 C 2,8 C 17,4 km/h (3 Bft)
05.01.2018 06:00 22,9 C 5,7 C 63 % 87 % 1001,5 hPa 0,0 l/m 10,2 km/h (2 Bft) S-SW 0,00 h 0,0 UV-I 0 W/m 3,6 C 2,8 C 17,4 km/h (3 Bft)
05.01.2018 07:00 22,9 C 5,7 C 63 % 87 % 1001,6 hPa 0,0 l/m 8,0 km/h (2 Bft) S-SW 0,00 h 0,0 UV-I 0 W/m 3,7 C 4,1 C 13,5 km/h (3 Bft)
05.01.2018 08:00 22,9 C 5,6 C 62 % 88 % 1001,5 hPa 0,0 l/m 6,9 km/h (2 Bft) S 0,00 h 0,0 UV-I 10 W/m 3,8 C 4,6 C 11,3 km/h (2 Bft)
05.01.2018 09:00 22,8 C 5,8 C 58 % 88 % 1001,6 hPa 0,0 l/m 6,7 km/h (2 Bft) S 0,00 h 0,0 UV-I 35 W/m 3,9 C 4,7 C 11,4 km/h (2 Bft)
05.01.2018 10:00 22,6 C 6,1 C 55 % 87 % 1001,4 hPa 0,0 l/m 7,8 km/h (2 Bft) S 0,00 h 0,0 UV-I 37 W/m 4,1 C 4,6 C 13,1 km/h (3 Bft)
05.01.2018 11:00 22,8 C 6,4 C 56 % 86 % 1001,3 hPa 0,0 l/m 9,6 km/h (2 Bft) S 0,00 h 0,0 UV-I 42 W/m 4,3 C 4,0 C 15,3 km/h (3 Bft)
05.01.2018 12:00 23,0 C 7,0 C 56 % 87 % 1001,3 hPa 0,0 l/m 9,3 km/h (2 Bft) S 0,00 h 0,5 UV-I 63 W/m 5,0 C 4,7 C 15,2 km/h (3 Bft)
05.01.2018 13:00 23,0 C 7,2 C 57 % 87 % 1001,4 hPa 0,0 l/m 7,4 km/h (2 Bft) S 0,00 h 0,0 UV-I 26 W/m 5,2 C 6,0 C 12,1 km/h (2 Bft)
05.01.2018 14:00 23,1 C 7,0 C 57 % 91 % 1001,3 hPa 0,0 l/m 2,0 km/h (1 Bft) S 0,00 h 0,0 UV-I 33 W/m 5,6 C 7,0 C 5,1 km/h (1 Bft)
05.01.2018 15:00 23,1 C 7,0 C 58 % 92 % 1001,3 hPa 0,0 l/m 1,3 km/h (1 Bft) S-SO 0,00 h 0,0 UV-I 11 W/m 5,7 C 7,0 C 3,1 km/h (1 Bft)
05.01.2018 16:00 23,1 C 6,8 C 57 % 94 % 1001,4 hPa 0,2 l/m 5,0 km/h (1 Bft) S-SO 0,00 h 0,0 UV-I 5 W/m 5,9 C 6,3 C 9,3 km/h (2 Bft)
05.01.2018 17:00 22,6 C 6,9 C 51 % 95 % 1001,8 hPa 0,4 l/m 8,4 km/h (2 Bft) S 0,00 h 0,0 UV-I 0 W/m 6,1 C 5,1 C 13,6 km/h (3 Bft)
05.01.2018 18:00 22,4 C 7,0 C 51 % 96 % 1002,2 hPa 0,2 l/m 5,1 km/h (1 Bft) S 0,00 h 0,0 UV-I 0 W/m 6,4 C 6,5 C 9,1 km/h (2 Bft)
05.01.2018 19:00 22,6 C 6,9 C 53 % 96 % 1002,4 hPa 0,0 l/m 1,4 km/h (1 Bft) S 0,00 h 0,0 UV-I 0 W/m 6,3 C 6,9 C 3,6 km/h (1 Bft)
05.01.2018 20:00 22,6 C 6,8 C 55 % 96 % 1002,9 hPa 0,0 l/m 1,3 km/h (1 Bft) S 0,00 h 0,0 UV-I 0 W/m 6,2 C 6,8 C 2,5 km/h (1 Bft)
05.01.2018 21:00 22,6 C 6,7 C 56 % 96 % 1003,3 hPa 0,0 l/m 0,4 km/h (0 Bft) S 0,00 h 0,0 UV-I 0 W/m 6,1 C 6,7 C 0,9 km/h (0 Bft)
05.01.2018 22:00 22,7 C 6,6 C 57 % 97 % 1003,9 hPa 0,0 l/m 0,3 km/h (0 Bft) S 0,00 h 0,0 UV-I 0 W/m 6,2 C 6,6 C 1,2 km/h (1 Bft)
05.01.2018 23:00 22,9 C 6,6 C 58 % 96 % 1004,7 hPa 0,0 l/m 2,9 km/h (1 Bft) S 0,00 h 0,0 UV-I 0 W/m 6,0 C 6,6 C 6,4 km/h (2 Bft)
06.01.2018 00:00 22,8 C 6,6 C 58 % 96 % 1005,4 hPa 0,0 l/m 2,9 km/h (1 Bft) S 0,00 h 0,0 UV-I 0 W/m 6,0 C 6,5 C 6,9 km/h (2 Bft)
06.01.2018 01:00 22,6 C 6,6 C 59 % 96 % 1005,6 hPa 0,0 l/m 3,9 km/h (1 Bft) S 0,00 h 0,0 UV-I 0 W/m 6,0 C 6,4 C 8,1 km/h (2 Bft)
06.01.2018 02:00 22,4 C 6,5 C 61 % 96 % 1006,1 hPa 0,0 l/m 0,1 km/h (0 Bft) S-SW 0,00 h 0,0 UV-I 0 W/m 5,9 C 6,5 C 0,3 km/h (0 Bft)
06.01.2018 03:00 22,4 C 6,3 C 62 % 96 % 1006,3 hPa 0,0 l/m 0,0 km/h (0 Bft) N 0,00 h 0,0 UV-I 0 W/m 5,7 C 6,3 C 0,0 km/h (0 Bft)
06.01.2018 04:00 22,4 C 6,3 C 62 % 96 % 1006,4 hPa 0,0 l/m 0,0 km/h (0 Bft) N 0,00 h 0,0 UV-I 0 W/m 5,7 C 6,3 C 0,0 km/h (0 Bft)
06.01.2018 05:00 22,4 C 6,2 C 63 % 96 % 1006,4 hPa 0,0 l/m 0,0 km/h (0 Bft) N 0,00 h 0,0 UV-I 0 W/m 5,6 C 6,2 C 0,0 km/h (0 Bft)
06.01.2018 06:00 22,4 C 6,0 C 62 % 96 % 1006,8 hPa 0,0 l/m 0,0 km/h (0 Bft) N 0,00 h 0,0 UV-I 0 W/m 5,4 C 6,0 C 0,0 km/h (0 Bft)
06.01.2018 07:00 22,5 C 5,9 C 61 % 96 % 1007,0 hPa 0,0 l/m 0,0 km/h (0 Bft) N 0,00 h 0,0 UV-I 0 W/m 5,3 C 5,9 C 0,0 km/h (0 Bft)
06.01.2018 08:00 22,7 C 6,0 C 61 % 96 % 1007,6 hPa 0,0 l/m 0,0 km/h (0 Bft) N 0,00 h 0,0 UV-I 11 W/m 5,4 C 6,0 C 0,0 km/h (0 Bft)
06.01.2018 09:00 22,8 C 6,2 C 60 % 96 % 1008,0 hPa 0,0 l/m 0,0 km/h (0 Bft) N 0,00 h 0,0 UV-I 39 W/m 5,6 C 6,2 C 0,0 km/h (0 Bft)
06.01.2018 10:00 22,9 C 6,6 C 60 % 95 % 1008,4 hPa 0,0 l/m 0,0 km/h (0 Bft) N 0,05 h 0,6 UV-I 69 W/m 5,9 C 6,6 C 0,0 km/h (0 Bft)
06.01.2018 11:00 23,0 C 7,3 C 60 % 93 % 1008,4 hPa 0,0 l/m 0,0 km/h (0 Bft) N 0,10 h 0,6 UV-I 107 W/m 6,2 C 7,3 C 0,0 km/h (0 Bft)
06.01.2018 12:00 23,1 C 7,7 C 61 % 91 % 1008,3 hPa 0,0 l/m 0,0 km/h (0 Bft) N 0,05 h 0,6 UV-I 111 W/m 6,3 C 7,7 C 0,1 km/h (0 Bft)
06.01.2018 13:00 23,3 C 7,8 C 62 % 91 % 1008,3 hPa 0,0 l/m 0,0 km/h (0 Bft) N 0,00 h 0,5 UV-I 79 W/m 6,4 C 7,8 C 0,0 km/h (0 Bft)
06.01.2018 14:00 23,3 C 7,9 C 61 % 90 % 1008,5 hPa 0,0 l/m 0,0 km/h (0 Bft) N 0,00 h 0,0 UV-I 57 W/m 6,4 C 7,9 C 0,0 km/h (0 Bft)
06.01.2018 15:00 23,2 C 8,0 C 62 % 90 % 1009,1 hPa 0,0 l/m 0,0 km/h (0 Bft) N 0,00 h 0,0 UV-I 20 W/m 6,4 C 8,0 C 0,0 km/h (0 Bft)
06.01.2018 16:00 23,1 C 7,7 C 61 % 90 % 1009,4 hPa 0,0 l/m 0,0 km/h (0 Bft) N 0,00 h 0,0 UV-I 7 W/m 6,2 C 7,7 C 0,1 km/h (0 Bft)
06.01.2018 17:00 23,1 C 7,3 C 63 % 91 % 1009,7 hPa 0,0 l/m 0,0 km/h (0 Bft) N 0,00 h 0,0 UV-I 0 W/m 5,9 C 7,3 C 0,0 km/h (0 Bft)
06.01.2018 18:00 23,2 C 6,9 C 64 % 91 % 1010,1 hPa 0,0 l/m 0,0 km/h (0 Bft) N 0,00 h 0,0 UV-I 0 W/m 5,6 C 6,9 C 0,0 km/h (0 Bft)
06.01.2018 19:00 23,2 C 5,8 C 64 % 91 % 1010,7 hPa 0,0 l/m 0,0 km/h (0 Bft) N 0,00 h 0,0 UV-I 0 W/m 4,5 C 5,8 C 0,0 km/h (0 Bft)
06.01.2018 20:00 23,2 C 5,1 C 66 % 93 % 1011,2 hPa 0,0 l/m 0,0 km/h (0 Bft) N 0,00 h 0,0 UV-I 0 W/m 4,0 C 5,1 C 0,0 km/h (0 Bft)
06.01.2018 21:00 23,3 C 4,6 C 66 % 94 % 1011,6 hPa 0,0 l/m 0,1 km/h (0 Bft) NO 0,00 h 0,0 UV-I 0 W/m 3,7 C 4,6 C 0,7 km/h (0 Bft)
06.01.2018 22:00 23,3 C 3,9 C 65 % 94 % 1012,3 hPa 0,0 l/m 0,0 km/h (0 Bft) N 0,00 h 0,0 UV-I 0 W/m 3,0 C 3,9 C 0,0 km/h (0 Bft)
06.01.2018 23:00 23,3 C 3,9 C 65 % 95 % 1012,8 hPa 0,0 l/m 0,0 km/h (0 Bft) N 0,00 h 0,0 UV-I 0 W/m 3,1 C 3,9 C 0,1 km/h (0 Bft)
07.01.2018 00:00 23,1 C 4,0 C 66 % 95 % 1013,2 hPa 0,0 l/m 0,0 km/h (0 Bft) N 0,00 h 0,0 UV-I 0 W/m 3,3 C 4,0 C 0,0 km/h (0 Bft)
07.01.2018 01:00 22,9 C 4,7 C 66 % 96 % 1013,5 hPa 0,0 l/m 0,3 km/h (0 Bft) NO 0,00 h 0,0 UV-I 0 W/m 4,1 C 4,7 C 2,0 km/h (1 Bft)
07.01.2018 02:00 22,8 C 5,0 C 66 % 96 % 1014,6 hPa 0,0 l/m 0,0 km/h (0 Bft) N 0,00 h 0,0 UV-I 0 W/m 4,4 C 5,0 C 0,1 km/h (0 Bft)
07.01.2018 03:00 22,8 C 5,5 C 66 % 96 % 1015,2 hPa 0,0 l/m 0,4 km/h (0 Bft) NO 0,00 h 0,0 UV-I 0 W/m 5,0 C 5,5 C 1,7 km/h (1 Bft)
07.01.2018 04:00 22,8 C 5,9 C 66 % 96 % 1015,8 hPa 0,0 l/m 0,6 km/h (0 Bft) N-NO 0,00 h 0,0 UV-I 0 W/m 5,3 C 5,9 C 2,3 km/h (1 Bft)
07.01.2018 05:00 22,8 C 5,9 C 66 % 96 % 1016,4 hPa 0,0 l/m 1,2 km/h (1 Bft) N-NO 0,00 h 0,0 UV-I 0 W/m 5,3 C 5,9 C 3,3 km/h (1 Bft)
07.01.2018 06:00 22,9 C 5,8 C 66 % 96 % 1017,0 hPa 0,0 l/m 0,7 km/h (0 Bft) N-NO 0,00 h 0,0 UV-I 0 W/m 5,2 C 5,8 C 2,0 km/h (1 Bft)
07.01.2018 07:00 23,0 C 5,9 C 65 % 96 % 1017,9 hPa 0,0 l/m 1,5 km/h (1 Bft) O-NO 0,00 h 0,0 UV-I 0 W/m 5,3 C 5,9 C 4,5 km/h (1 Bft)
07.01.2018 08:00 23,2 C 5,6 C 65 % 95 % 1019,1 hPa 0,0 l/m 1,1 km/h (1 Bft) NO 0,00 h 0,0 UV-I 8 W/m 4,9 C 5,5 C 2,9 km/h (1 Bft)
07.01.2018 09:00 23,3 C 5,3 C 64 % 95 % 1020,3 hPa 0,0 l/m 4,2 km/h (1 Bft) NO 0,00 h 0,0 UV-I 16 W/m 4,5 C 5,0 C 8,8 km/h (2 Bft)
07.01.2018 10:00 23,4 C 5,0 C 64 % 94 % 1021,3 hPa 0,0 l/m 3,8 km/h (1 Bft) NO 0,00 h 0,0 UV-I 16 W/m 4,1 C 4,6 C 8,3 km/h (2 Bft)
07.01.2018 11:00 23,3 C 4,8 C 63 % 94 % 1021,6 hPa 0,0 l/m 4,3 km/h (1 Bft) O-NO 0,00 h 0,0 UV-I 30 W/m 3,9 C 4,5 C 9,0 km/h (2 Bft)
07.01.2018 12:00 23,3 C 4,8 C 62 % 93 % 1022,1 hPa 0,0 l/m 4,0 km/h (1 Bft) O-NO 0,00 h 0,0 UV-I 35 W/m 3,7 C 4,5 C 9,2 km/h (2 Bft)
07.01.2018 13:00 25,5 C 4,9 C 56 % 92 % 1022,2 hPa 0,0 l/m 2,7 km/h (1 Bft) O-NO 0,00 h 0,0 UV-I 42 W/m 3,6 C 4,8 C 6,7 km/h (2 Bft)
07.01.2018 14:00 27,9 C 4,7 C 50 % 91 % 1022,3 hPa 0,0 l/m 3,6 km/h (1 Bft) O-NO 0,00 h 0,0 UV-I 19 W/m 3,4 C 4,5 C 8,3 km/h (2 Bft)
07.01.2018 15:00 28,4 C 4,1 C 49 % 91 % 1022,7 hPa 0,0 l/m 6,4 km/h (2 Bft) NO 0,00 h 0,0 UV-I 9 W/m 2,8 C 3,1 C 13,4 km/h (3 Bft)
07.01.2018 16:00 28,6 C 3,7 C 47 % 91 % 1023,4 hPa 0,0 l/m 5,9 km/h (2 Bft) O-NO 0,00 h 0,0 UV-I 0 W/m 2,4 C 2,5 C 11,5 km/h (2 Bft)
07.01.2018 17:00 28,8 C 3,4 C 46 % 92 % 1023,7 hPa 0,0 l/m 5,6 km/h (1 Bft) O-NO 0,00 h 0,0 UV-I 0 W/m 2,2 C 2,8 C 11,4 km/h (2 Bft)
07.01.2018 18:00 29,3 C 3,2 C 46 % 93 % 1024,0 hPa 0,0 l/m 7,4 km/h (2 Bft) O-NO 0,00 h 0,0 UV-I 0 W/m 2,2 C 1,9 C 13,8 km/h (3 Bft)
07.01.2018 19:00 29,5 C 3,2 C 47 % 93 % 1024,2 hPa 0,0 l/m 7,1 km/h (2 Bft) O-NO 0,00 h 0,0 UV-I 0 W/m 2,3 C 1,9 C 12,9 km/h (3 Bft)
07.01.2018 20:00 27,2 C 3,2 C 51 % 94 % 1024,8 hPa 0,0 l/m 7,1 km/h (2 Bft) O-NO 0,00 h 0,0 UV-I 0 W/m 2,3 C 1,8 C 13,6 km/h (3 Bft)
07.01.2018 21:00 25,7 C 3,2 C 55 % 94 % 1025,0 hPa 0,0 l/m 8,7 km/h (2 Bft) O-NO 0,00 h 0,0 UV-I 0 W/m 2,3 C 1,0 C 16,0 km/h (3 Bft)
07.01.2018 22:00 24,8 C 3,2 C 58 % 94 % 1025,1 hPa 0,0 l/m 9,2 km/h (2 Bft) O-NO 0,00 h 0,0 UV-I 0 W/m 2,3 C 0,7 C 16,2 km/h (3 Bft)
07.01.2018 23:00 24,3 C 3,3 C 59 % 94 % 1025,2 hPa 0,0 l/m 4,9 km/h (1 Bft) O-NO 0,00 h 0,0 UV-I 0 W/m 2,4 C 2,7 C 10,4 km/h (2 Bft)
Min-Datum _ 03.01.18 03.01.18 07.01.18 01.01.18 03.01.18 - 01.01.18 - - - - 03.01.18 03.01.18 01.01.18
_ Min-Zeit 05:53 04:33 18:47 14:01 09:28 - 00:00 - - - - 04:33 06:12 00:00
Minimum _ 22,3 C 1,6 C 45 % 74 % 989,8 hPa - 0,0 km/h (0 Bft) - - - - 0,7 C -9,0 C 0,0 km/h (0 Bft)
Max-Datum _ 07.01.18 06.01.18 01.01.18 03.01.18 07.01.18 03.01.18 03.01.18 - 01.01.18 02.01.18 02.01.18 05.01.18 06.01.18 03.01.18
_ Max-Zeit 19:06 14:59 01:39 08:29 22:57 09:02 14:48 - 13:24 12:28 12:29 00:06 15:01 14:48
Maximum _ 29,9 C 8,0 C 68 % 97 % 1025,3 hPa 4,4 l/m 35,4 km/h
W (5 Bft)
- 0,02 h 0,8 UV-I 383 W/m 7,0 C 8,0 C 66,0 km/h
W-SW (8 Bft)
Durchschnitt _ 23,2 C 4,9 C 61 % 92 % 1006,3 hPa #22,0 l/m 6,6 km/h (2 Bft) S #1:21 h 0,5 UV-I 41 W/m 3,6 C 3,1 C 11,5 km/h (2 Bft)